Date String (YYYY-MM-DD hh:mm:ss) UTC,Instrument flags,Ambient pressure (hPa),Sample flow (lpm),Bypass flow (lpm),Sample temperature (°C),Ambient temperature (°C),ASC tube jacket temperature (°C),LED temperature (°C),Box temperature (°C),Sample RH (%),Span deviation,Mass concentration (μg/m³),Mass concentration (μg/m³),Mass concentration (μg/m³)
DateTimeUTC,F1_M11,P_M11,Q1_M11,Q2_M11,T1_M11,T2_M11,T3_M11,T4_M11,T5_M11,U1_M11,ZSPAN_M11,X0_M11,X2_M11,X1_M11
2023-05-21 19:00:00,,0833.3,5.00,0.00,29.6,27.3,00.0,37.9,31.1,18.1,0003.5,0023.96,0017.68,0016.64
2023-05-21 19:01:00,,0833.4,4.98,0.00,29.6,27.6,00.0,37.9,31.2,16.8,0003.5,0023.97,0017.65,0016.62
2023-05-21 19:02:00,,0833.4,5.01,0.00,29.6,27.7,00.0,37.9,31.2,17.9,0003.4,0023.98,0017.68,0016.63
2023-05-21 19:03:00,,0833.4,5.01,0.00,29.6,27.9,00.0,37.9,31.3,17.6,0003.4,0022.99,0017.75,0016.68
2023-05-21 19:04:00,,0833.4,4.99,0.00,29.6,28.0,00.0,37.9,31.3,17.3,0003.3,0022.86,0017.79,0016.71
2023-05-21 19:05:00,,0833.4,5.00,0.00,29.7,28.1,00.0,37.9,31.3,17.6,0003.3,0023.32,0017.85,0016.76
2023-05-21 19:06:00,,0833.4,5.01,0.00,29.7,28.2,00.0,38.0,31.4,16.2,0003.2,0023.33,0017.89,0016.82
2023-05-21 19:07:00,,0833.4,5.00,0.00,29.7,28.3,00.0,38.0,31.4,16.1,0003.2,0023.40,0017.93,0016.86
2023-05-21 19:08:00,,0833.4,5.00,0.00,29.7,28.4,00.0,38.0,31.4,16.1,0003.2,0023.50,0017.96,0016.88
2023-05-21 19:09:00,,0833.4,4.99,0.00,29.8,28.4,00.0,38.0,31.5,16.5,0003.4,0023.58,0018.02,0016.91
2023-05-21 19:10:00,,0833.4,5.01,0.00,29.8,28.5,00.0,38.0,31.5,16.7,0003.4,0023.81,0018.11,0016.98
2023-05-21 19:11:00,,0833.4,5.00,0.00,29.8,28.0,00.0,38.0,31.5,17.5,0003.4,0023.80,0018.14,0017.01
2023-05-21 19:12:00,,0833.4,4.99,0.00,29.8,26.4,00.0,37.9,31.3,16.6,0003.3,0023.71,0018.15,0017.05
2023-05-21 19:13:00,,0833.3,5.01,0.00,29.7,26.0,00.0,37.9,31.2,16.8,0003.4,0023.85,0018.23,0017.13
2023-05-21 19:14:00,,0833.3,5.01,0.00,29.7,26.2,00.0,37.9,31.1,17.3,0003.4,0023.84,0018.22,0017.16
2023-05-21 19:15:00,,0833.3,4.99,0.00,29.6,26.5,00.0,37.9,31.1,18.0,0003.4,0023.77,0018.21,0017.19
2023-05-21 19:16:00,,0833.3,5.01,0.00,29.6,26.8,00.0,37.9,31.1,18.0,0003.3,0023.58,0018.24,0017.22
2023-05-21 19:17:00,,0833.3,5.01,0.00,29.6,27.1,00.0,37.9,31.1,17.4,0003.2,0023.58,0018.28,0017.26
2023-05-21 19:18:00,,0833.4,4.98,0.00,29.6,27.3,00.0,37.9,31.2,17.4,0003.3,0024.28,0018.30,0017.30
2023-05-21 19:19:00,,0833.4,5.01,0.00,29.6,27.5,00.0,37.9,31.2,17.7,0003.2,0024.29,0018.29,0017.30
2023-05-21 19:20:00,,0833.4,5.01,0.00,29.6,27.7,00.0,37.9,31.2,17.0,0003.2,0024.35,0018.29,0017.31
2023-05-21 19:21:00,,0833.4,4.99,0.00,29.6,27.9,00.0,37.9,31.3,16.8,0003.2,0024.10,0018.22,0017.29
2023-05-21 19:22:00,,0833.4,4.99,0.00,29.6,28.0,00.0,37.9,31.3,16.7,0003.2,0023.95,0018.22,0017.31
2023-05-21 19:23:00,,0833.3,5.01,0.00,29.7,28.1,00.0,37.9,31.4,16.7,0003.3,0024.02,0018.27,0017.33
2023-05-21 19:24:00,,0833.3,5.00,0.00,29.7,28.2,00.0,37.9,31.4,17.8,0003.3,0024.02,0018.28,0017.33
2023-05-21 19:25:00,,0833.2,4.98,0.00,29.7,28.3,00.0,38.0,31.4,17.4,0003.4,0024.03,0018.33,0017.33
2023-05-21 19:26:00,,0833.3,5.00,0.00,29.7,28.4,00.0,38.0,31.4,16.5,0003.4,0024.02,0018.34,0017.34
2023-05-21 19:27:00,,0833.2,5.01,0.00,29.8,28.5,00.0,38.0,31.5,16.6,0003.5,0023.98,0018.30,0017.32
2023-05-21 19:28:00,,0833.3,5.01,0.00,29.8,28.5,00.0,38.0,31.5,17.2,0003.5,0024.34,0018.25,0017.28
2023-05-21 19:29:00,,0833.2,4.98,0.00,29.8,27.4,00.0,38.0,31.4,17.6,0003.5,0023.87,0018.23,0017.24
2023-05-21 19:30:00,,0833.2,5.02,0.00,29.8,26.2,00.0,37.9,31.2,16.9,0003.4,0023.70,0018.24,0017.23
2023-05-21 19:31:00,,0833.2,5.01,0.00,29.7,26.2,00.0,37.9,31.2,16.2,0003.3,0023.73,0018.22,0017.22
2023-05-21 19:32:00,,0833.2,5.00,0.00,29.6,26.4,00.0,37.9,31.1,16.9,0003.4,0023.72,0018.23,0017.22
2023-05-21 19:33:00,,0833.2,5.00,0.00,29.6,26.7,00.0,37.9,31.1,16.2,0003.5,0023.87,0018.24,0017.20
2023-05-21 19:34:00,,0833.2,5.00,0.00,29.6,26.9,00.0,37.9,31.1,16.9,0003.7,0024.25,0018.21,0017.17
2023-05-21 19:35:00,,0833.1,5.00,0.00,29.6,27.2,00.0,37.9,31.2,17.0,0003.7,0024.13,0018.13,0017.12
2023-05-21 19:36:00,,0833.1,5.00,0.00,29.6,27.4,00.0,37.9,31.2,17.1,0003.6,0024.18,0018.08,0017.07
2023-05-21 19:37:00,,0833.1,5.01,0.00,29.6,27.6,00.0,37.9,31.2,16.7,0003.5,0024.33,0018.00,0017.03
2023-05-21 19:38:00,,0833.1,5.00,0.00,29.6,27.8,00.0,37.9,31.3,17.5,0003.6,0024.43,0017.95,0016.99
2023-05-21 19:39:00,,0833.1,4.99,0.00,29.6,28.0,00.0,37.9,31.3,17.8,0003.7,0024.38,0017.89,0016.96
2023-05-21 19:40:00,,0833.1,5.00,0.00,29.7,28.1,00.0,37.9,31.3,16.7,0003.7,0024.14,0017.83,0016.92
2023-05-21 19:41:00,,0833.1,5.01,0.00,29.7,28.2,00.0,38.0,31.4,17.3,0004.0,0024.29,0017.79,0016.86
2023-05-21 19:42:00,,0833.1,5.01,0.00,29.7,28.3,00.0,38.0,31.4,17.2,0004.0,0024.42,0017.74,0016.81
2023-05-21 19:43:00,,0833.1,4.99,0.00,29.7,28.3,00.0,38.0,31.4,17.0,0004.0,0024.35,0017.65,0016.72
2023-05-21 19:44:00,,0833.0,4.99,0.00,29.8,28.4,00.0,38.0,31.5,16.1,0004.0,0024.29,0017.58,0016.66
2023-05-21 19:45:00,,0833.1,5.01,0.00,29.8,28.5,00.0,38.0,31.5,16.1,0003.8,0024.07,0017.54,0016.63
2023-05-21 19:46:00,,0833.0,5.01,0.00,29.8,28.5,00.0,38.0,31.5,15.8,0003.8,0024.25,0017.51,0016.61
2023-05-21 19:47:00,,0833.0,4.98,0.00,29.8,27.6,00.0,38.0,31.4,17.5,0003.9,0024.00,0017.41,0016.55
2023-05-21 19:48:00,,0833.0,5.01,0.00,29.8,26.2,00.0,37.9,31.2,17.7,0003.8,0023.69,0017.36,0016.47
2023-05-21 19:49:00,,0833.2,5.01,0.00,29.7,26.1,00.0,37.9,31.1,15.9,0003.6,0023.68,0017.37,0016.42
2023-05-21 19:50:00,,0833.1,5.00,0.00,29.6,26.3,00.0,37.9,31.1,16.5,0003.6,0023.24,0017.40,0016.41
2023-05-21 19:51:00,,0833.2,4.98,0.00,29.6,26.6,00.0,37.9,31.1,16.0,0003.7,0023.26,0017.38,0016.38
2023-05-21 19:52:00,,0833.2,5.00,0.00,29.6,26.9,00.0,37.9,31.1,16.5,0003.5,0023.13,0017.37,0016.38
2023-05-21 19:53:00,,0832.9,5.00,0.00,29.6,27.1,00.0,37.9,31.2,16.1,0003.6,0022.76,0017.36,0016.37
2023-05-21 19:54:00,,0833.1,5.02,0.00,29.6,27.4,00.0,37.9,31.2,16.1,0003.6,0022.92,0017.42,0016.42
2023-05-21 19:55:00,,0833.2,4.99,0.00,29.6,27.6,00.0,37.9,31.2,16.8,0003.6,0022.88,0017.37,0016.41
2023-05-21 19:56:00,,0833.3,4.99,0.00,29.6,27.8,00.0,37.9,31.3,16.5,0003.7,0022.68,0017.38,0016.40
2023-05-21 19:57:00,,0833.0,5.01,0.00,29.6,27.9,00.0,37.9,31.3,16.3,0003.7,0022.40,0017.36,0016.37
2023-05-21 19:58:00,,0833.0,5.01,0.00,29.6,28.1,00.0,37.9,31.3,16.5,0003.7,0022.44,0017.37,0016.36
2023-05-21 19:59:00,,0832.9,5.00,0.00,29.7,28.2,00.0,38.0,31.4,16.3,0003.8,0022.89,0017.39,0016.37
